Location: ???????????
(54.5822°N, 39.1075°E)
Time: 18:10:09
(UTC+00:00)

Cosmos 2292 Rocket - Pass Details

Date: 19 May 2025
Orbit: 369 x 1266 km, 83.0° (Epoch: 20 June)

Event Time Altitude Azimuth Distance (km) Brightness Sun altitude
Exits shadow 23:07:25 13° 179° (S) 2,329 6.0 -12.0°
Maximum altitude 23:12:31 70° 98° (E) 778 4.1 -11.6°
Drops below altitude 10° 23:16:53 10° 15° (NNE) 1,978 7.6 -11.4°
Sets 23:18:50 0° 13° (NNE) 2,769 8.6 -11.2°
